| time (UTC) | temp F | wind direction | speed MPH | gust MPH | rain 1hr in | rain 24hr in | rain mn in | humidity % | barometer mb |
| 20260507064016 | 52 | 212 | 0.0 | 0.0 | 0.00 | 0.04 | 0.04 | 100 | 1020.2 |
| 20260507063016 | 52 | 212 | 0.0 | 0.0 | 0.00 | 0.04 | 0.04 | 100 | 1020.2 |
| 20260507062015 | 52 | 212 | 0.0 | 0.0 | 0.00 | 0.04 | 0.04 | 100 | 1020.2 |
| 20260507061036 | 52 | 212 | 0.0 | 0.0 | 0.00 | 0.04 | 0.04 | 100 | 1020.2 |
| 20260507060015 | 52 | 212 | 0.0 | 0.0 | 0.00 | 0.04 | 0.04 | 100 | 1020.2 |
| 20260507055036 | 52 | 212 | 0.0 | 0.0 | 0.00 | 0.04 | 0.04 | 100 | 1020.3 |
| 20260507054015 | 52 | 212 | 0.0 | 0.0 | 0.00 | 0.04 | 0.04 | 100 | 1020.4 |
| 20260507053015 | 52 | 212 | 0.0 | 0.0 | 0.00 | 0.04 | 0.04 | 100 | 1020.4 |
| 20260507052015 | 52 | 203 | 0.0 | 1.0 | 0.00 | 0.04 | 0.04 | 100 | 1020.4 |
| 20260507051015 | 52 | 203 | 1.0 | 5.0 | 0.00 | 0.04 | 0.04 | 100 | 1020.4 |
| 20260507050035 | 53 | 203 | 0.0 | 3.0 | 0.00 | 0.04 | 0.04 | 100 | 1020.4 |
| 20260507045036 | 53 | 212 | 0.0 | 0.0 | 0.00 | 0.04 | 0.04 | 100 | 1020.5 |
| 20260507044015 | 53 | 212 | 0.0 | 0.0 | 0.00 | 0.04 | 0.04 | 100 | 1020.3 |
| 20260507043015 | 53 | 212 | 0.0 | 0.0 | 0.00 | 0.04 | 0.04 | 100 | 1020.3 |
| 20260507042055 | 53 | 212 | 0.0 | 0.0 | 0.00 | 0.04 | 0.04 | 100 | 1020.2 |
| 20260507041015 | 53 | 212 | 0.0 | 0.0 | 0.00 | 0.04 | 0.04 | 100 | 1020.2 |
| 20260507040016 | 53 | 212 | 0.0 | 0.0 | 0.00 | 0.04 | 0.04 | 100 | 1020.2 |
| 20260507035015 | 54 | 212 | 0.0 | 0.0 | 0.00 | 0.04 | 0.04 | 100 | 1020.2 |
| 20260507034017 | 54 | 212 | 0.0 | 0.0 | 0.00 | 0.04 | 0.04 | 100 | 1020.2 |
| 20260507033037 | 54 | 212 | 0.0 | 0.0 | 0.00 | 0.04 | 0.04 | 100 | 1020.2 |
| 20260507032017 | 54 | 212 | 0.0 | 0.0 | 0.00 | 0.04 | 0.04 | 100 | 1019.9 |
| 20260507031038 | 54 | 212 | 0.0 | 0.0 | 0.00 | 0.04 | 0.04 | 100 | 1019.8 |
| 20260507030037 | 54 | 203 | 0.0 | 2.0 | 0.00 | 0.04 | 0.04 | 100 | 1019.8 |
| 20260507025017 | 54 | 212 | 0.0 | 0.0 | 0.00 | 0.04 | 0.04 | 100 | 1019.9 |
| 20260507024038 | 54 | 212 | 0.0 | 0.0 | 0.00 | 0.04 | 0.04 | 100 | 1019.8 |
| 20260507023017 | 54 | 212 | 0.0 | 0.0 | 0.00 | 0.04 | 0.04 | 99 | 1019.8 |
| 20260507022017 | 54 | 212 | 0.0 | 0.0 | 0.00 | 0.04 | 0.04 | 99 | 1020.0 |
| 20260507021017 | 54 | 212 | 0.0 | 0.0 | 0.00 | 0.04 | 0.04 | 97 | 1020.0 |
| 20260507020017 | 55 | 212 | 0.0 | 0.0 | 0.00 | 0.04 | 0.04 | 96 | 1020.0 |
| 20260507015017 | 55 | 212 | 0.0 | 0.0 | 0.00 | 0.04 | 0.04 | 96 | 1019.9 |
| 20260507014017 | 55 | 212 | 0.0 | 0.0 | 0.00 | 0.04 | 0.04 | 95 | 1019.7 |
| 20260507013017 | 55 | 212 | 0.0 | 0.0 | 0.00 | 0.04 | 0.04 | 96 | 1019.7 |
| 20260507012017 | 55 | 212 | 0.0 | 0.0 | 0.00 | 0.04 | 0.04 | 96 | 1019.7 |
| 20260507011017 | 56 | 212 | 0.0 | 0.0 | 0.00 | 0.04 | 0.04 | 95 | 1019.8 |
| 20260507010017 | 56 | 203 | 0.0 | 2.0 | 0.00 | 0.04 | 0.04 | 94 | 1019.8 |
| 20260507005017 | 56 | 212 | 0.0 | 0.0 | 0.00 | 0.04 | 0.04 | 95 | 1019.8 |
| 20260507004017 | 56 | 212 | 0.0 | 0.0 | 0.00 | 0.04 | 0.04 | 95 | 1019.8 |
| 20260507003017 | 56 | 212 | 0.0 | 0.0 | 0.00 | 0.04 | 0.04 | 96 | 1019.8 |
| 20260507002017 | 56 | 212 | 0.0 | 0.0 | 0.00 | 0.04 | 0.04 | 95 | 1019.8 |
| 20260507001037 | 56 | 203 | 0.0 | 2.0 | 0.00 | 0.04 | 0.04 | 96 | 1019.7 |
| 20260507000017 | 56 | 212 | 0.0 | 0.0 | 0.00 | 0.04 | 0.04 | 95 | 1019.7 |
| 20260506235017 | 56 | 212 | 0.0 | 0.0 | 0.00 | 0.04 | 0.04 | 95 | 1019.7 |
| 20260506234016 | 56 | 212 | 0.0 | 0.0 | 0.00 | 0.04 | 0.04 | 95 | 1019.7 |
| 20260506233017 | 56 | 212 | 0.0 | 0.0 | 0.00 | 0.04 | 0.04 | 94 | 1019.7 |
| 20260506232056 | 56 | 212 | 0.0 | 0.0 | 0.00 | 0.04 | 0.04 | 94 | 1019.7 |
| 20260506231017 | 56 | 212 | 0.0 | 0.0 | 0.00 | 0.04 | 0.04 | 92 | 1019.9 |
| 20260506230017 | 56 | 212 | 0.0 | 0.0 | 0.00 | 0.04 | 0.04 | 93 | 1019.9 |
| 20260506225016 | 56 | 212 | 0.0 | 0.0 | 0.00 | 0.04 | 0.04 | 94 | 1019.9 |
| 20260506224037 | 56 | 212 | 0.0 | 0.0 | 0.00 | 0.04 | 0.04 | 95 | 1019.8 |
| 20260506223016 | 56 | 212 | 0.0 | 0.0 | 0.00 | 0.04 | 0.04 | 95 | 1019.8 |
| 20260506222017 | 56 | 203 | 0.0 | 2.0 | 0.00 | 0.04 | 0.04 | 96 | 1020.1 |
| 20260506221037 | 55 | 203 | 0.0 | 2.0 | 0.00 | 0.04 | 0.04 | 97 | 1020.1 |
| 20260506220017 | 55 | 212 | 0.0 | 0.0 | 0.00 | 0.04 | 0.04 | 97 | 1020.1 |
| 20260506215016 | 55 | 212 | 0.0 | 0.0 | 0.00 | 0.04 | 0.04 | 98 | 1020.1 |
| 20260506214016 | 55 | 203 | 1.0 | 3.0 | 0.00 | 0.04 | 0.04 | 100 | 1020.1 |
| 20260506213016 | 54 | 203 | 1.0 | 4.0 | 0.00 | 0.04 | 0.04 | 100 | 1020.1 |
| 20260506212017 | 54 | 203 | 1.0 | 3.0 | 0.00 | 0.04 | 0.04 | 100 | 1020.2 |
| 20260506211018 | 54 | 203 | 0.0 | 1.0 | 0.00 | 0.04 | 0.04 | 100 | 1020.1 |
| 20260506210016 | 53 | 212 | 0.0 | 0.0 | 0.00 | 0.04 | 0.04 | 100 | 1020.1 |
| 20260506205017 | 53 | 203 | 1.0 | 3.0 | 0.00 | 0.04 | 0.04 | 100 | 1020.1 |
| 20260506204016 | 53 | 203 | 0.0 | 1.0 | 0.00 | 0.04 | 0.04 | 100 | 1020.1 |
| 20260506203036 | 53 | 203 | 0.0 | 2.0 | 0.00 | 0.04 | 0.04 | 100 | 1020.1 |
| 20260506202056 | 53 | 212 | 0.0 | 0.0 | 0.00 | 0.04 | 0.04 | 100 | 1020.1 |
| 20260506201037 | 53 | 203 | 0.0 | 1.0 | 0.00 | 0.04 | 0.04 | 100 | 1020.0 |
| 20260506200016 | 53 | 203 | 0.0 | 2.0 | 0.00 | 0.04 | 0.04 | 100 | 1020.0 |
| 20260506195016 | 53 | 203 | 0.0 | 3.0 | 0.00 | 0.04 | 0.04 | 100 | 1019.8 |
| 20260506194016 | 53 | 203 | 0.0 | 1.0 | 0.00 | 0.04 | 0.04 | 100 | 1019.8 |
| 20260506193016 | 52 | 203 | 0.0 | 3.0 | 0.00 | 0.04 | 0.04 | 100 | 1019.8 |
| 20260506192016 | 52 | 203 | 0.0 | 3.0 | 0.00 | 0.04 | 0.04 | 100 | 1019.7 |
| 20260506191016 | 53 | 203 | 0.0 | 3.0 | 0.00 | 0.04 | 0.04 | 100 | 1019.6 |
| 20260506190036 | 52 | 212 | 0.0 | 0.0 | 0.00 | 0.04 | 0.04 | 100 | 1019.6 |
| 20260506185016 | 52 | 203 | 0.0 | 2.0 | 0.00 | 0.04 | 0.04 | 100 | 1019.6 |
| 20260506184016 | 52 | 212 | 0.0 | 0.0 | 0.00 | 0.04 | 0.04 | 100 | 1019.6 |
| 20260506183056 | 52 | 212 | 0.0 | 0.0 | 0.01 | 0.04 | 0.04 | 100 | 1019.6 |
| 20260506182036 | 51 | 203 | 0.0 | 4.0 | 0.01 | 0.04 | 0.04 | 100 | 1019.5 |
| 20260506181016 | 52 | 203 | 0.0 | 1.0 | 0.01 | 0.04 | 0.04 | 100 | 1019.5 |
| 20260506180016 | 52 | 212 | 0.0 | 0.0 | 0.01 | 0.04 | 0.04 | 100 | 1019.5 |
| 20260506175016 | 51 | 203 | 0.0 | 1.0 | 0.01 | 0.04 | 0.04 | 100 | 1019.4 |
| 20260506174016 | 52 | 203 | 0.0 | 1.0 | 0.01 | 0.04 | 0.04 | 100 | 1019.3 |
| 20260506173036 | 52 | 203 | 0.0 | 2.0 | 0.00 | 0.03 | 0.03 | 100 | 1019.3 |
| 20260506172016 | 52 | 212 | 0.0 | 0.0 | 0.00 | 0.03 | 0.03 | 100 | 1019.1 |
| 20260506171016 | 52 | 203 | 0.0 | 1.0 | 0.00 | 0.03 | 0.03 | 100 | 1018.7 |
| 20260506170016 | 52 | 212 | 0.0 | 0.0 | 0.00 | 0.03 | 0.03 | 100 | 1018.7 |
| 20260506165016 | 52 | 212 | 0.0 | 0.0 | 0.00 | 0.03 | 0.03 | 100 | 1019.0 |
| 20260506164016 | 51 | 212 | 0.0 | 0.0 | 0.01 | 0.03 | 0.03 | 100 | 1019.1 |
| 20260506163016 | 51 | 212 | 0.0 | 0.0 | 0.01 | 0.03 | 0.03 | 100 | 1019.1 |
| 20260506162016 | 50 | 212 | 0.0 | 0.0 | 0.01 | 0.03 | 0.03 | 100 | 1019.0 |
| 20260506161036 | 50 | 203 | 0.0 | 1.0 | 0.01 | 0.03 | 0.03 | 100 | 1019.2 |
| 20260506160016 | 50 | 212 | 0.0 | 0.0 | 0.01 | 0.03 | 0.03 | 100 | 1019.2 |
| 20260506155015 | 50 | 203 | 1.0 | 3.0 | 0.01 | 0.03 | 0.03 | 100 | 1019.2 |
| 20260506154016 | 50 | 203 | 0.0 | 2.0 | 0.00 | 0.02 | 0.02 | 100 | 1019.1 |
| 20260506153016 | 50 | 203 | 0.0 | 2.0 | 0.01 | 0.02 | 0.02 | 100 | 1019.1 |
| 20260506152016 | 51 | 203 | 0.0 | 2.0 | 0.01 | 0.02 | 0.02 | 100 | 1018.7 |
| 20260506151016 | 51 | 203 | 0.0 | 2.0 | 0.01 | 0.02 | 0.02 | 100 | 1018.5 |
| 20260506150016 | 50 | 212 | 0.0 | 0.0 | 0.01 | 0.02 | 0.02 | 100 | 1018.5 |
| 20260506145016 | 50 | 212 | 0.0 | 0.0 | 0.01 | 0.02 | 0.02 | 100 | 1018.4 |
| 20260506144015 | 50 | 212 | 0.0 | 0.0 | 0.01 | 0.02 | 0.02 | 100 | 1018.5 |
| 20260506143015 | 50 | 212 | 0.0 | 0.0 | 0.00 | 0.01 | 0.01 | 100 | 1018.5 |
| 20260506142016 | 51 | 212 | 0.0 | 0.0 | 0.00 | 0.01 | 0.01 | 100 | 1018.3 |
| 20260506141016 | 51 | 212 | 0.0 | 0.0 | 0.00 | 0.01 | 0.01 | 100 | 1018.2 |
| 20260506140015 | 51 | 212 | 0.0 | 0.0 | 0.00 | 0.01 | 0.01 | 100 | 1018.2 |
| 20260506135015 | 50 | 212 | 0.0 | 0.0 | 0.00 | 0.01 | 0.01 | 100 | 1018.1 |
| 20260506134016 | 50 | 212 | 0.0 | 0.0 | 0.00 | 0.01 | 0.01 | 100 | 1018.1 |
| 20260506133015 | 50 | 212 | 0.0 | 0.0 | 0.01 | 0.01 | 0.01 | 100 | 1018.1 |
| 20260506132015 | 50 | 212 | 0.0 | 0.0 | 0.01 | 0.01 | 0.01 | 100 | 1018.0 |
| 20260506131055 | 50 | 212 | 0.0 | 0.0 | 0.01 | 0.01 | 0.01 | 100 | 1018.1 |
| 20260506130156 | 50 | 212 | 0.0 | 0.0 | 0.01 | 0.01 | 0.01 | 100 | 1018.1 |
| 20260506125015 | 50 | 212 | 0.0 | 0.0 | 0.01 | 0.01 | 0.01 | 100 | 1018.1 |
| 20260506124015 | 50 | 216 | 0.0 | 0.0 | 0.01 | 0.01 | 0.01 | 100 | 1018.1 |
| 20260506123015 | 50 | 216 | 0.0 | 0.0 | 0.00 | 0.00 | 0.00 | 100 | 1018.1 |
| 20260506122017 | 50 | 216 | 0.0 | 0.0 | 0.00 | 0.00 | 0.00 | 100 | 1018.0 |
| 20260506121017 | 50 | 216 | 0.0 | 0.0 | 0.00 | 0.00 | 0.00 | 100 | 1018.0 |
| 20260506120017 | 50 | 216 | 0.0 | 0.0 | 0.00 | 0.00 | 0.00 | 100 | 1018.0 |
| 20260506115017 | 50 | 216 | 0.0 | 0.0 | 0.00 | 0.00 | 0.00 | 100 | 1017.6 |
| 20260506114017 | 50 | 216 | 0.0 | 0.0 | 0.00 | 0.00 | 0.00 | 100 | 1017.6 |
| 20260506113017 | 50 | 216 | 0.0 | 0.0 | 0.00 | 0.00 | 0.00 | 100 | 1017.6 |
| 20260506112037 | 50 | 216 | 0.0 | 0.0 | 0.00 | 0.00 | 0.00 | 100 | 1017.6 |
| 20260506111017 | 49 | 216 | 0.0 | 0.0 | 0.00 | 0.00 | 0.00 | 100 | 1017.5 |
| 20260506110017 | 49 | 216 | 0.0 | 0.0 | 0.00 | 0.00 | 0.00 | 100 | 1017.5 |
| 20260506105057 | 49 | 216 | 0.0 | 0.0 | 0.00 | 0.00 | 0.00 | 100 | 1017.1 |
| 20260506104017 | 49 | 216 | 0.0 | 0.0 | 0.00 | 0.00 | 0.00 | 100 | 1017.0 |
| 20260506103037 | 49 | 216 | 0.0 | 0.0 | 0.00 | 0.00 | 0.00 | 100 | 1017.0 |
| 20260506102017 | 49 | 216 | 0.0 | 0.0 | 0.00 | 0.00 | 0.00 | 100 | 1016.8 |
| 20260506101017 | 48 | 216 | 0.0 | 0.0 | 0.00 | 0.00 | 0.00 | 100 | 1016.8 |
| 20260506100017 | 48 | 216 | 0.0 | 0.0 | 0.00 | 0.00 | 0.00 | 100 | 1016.8 |
| 20260506095017 | 48 | 216 | 0.0 | 0.0 | 0.00 | 0.00 | 0.00 | 100 | 1016.7 |
| 20260506094017 | 48 | 216 | 0.0 | 0.0 | 0.00 | 0.00 | 0.00 | 100 | 1016.8 |
| 20260506093017 | 48 | 216 | 0.0 | 0.0 | 0.00 | 0.00 | 0.00 | 100 | 1016.8 |
| 20260506092017 | 47 | 216 | 0.0 | 0.0 | 0.00 | 0.00 | 0.00 | 100 | 1016.8 |
| 20260506091037 | 47 | 216 | 0.0 | 0.0 | 0.00 | 0.00 | 0.00 | 100 | 1016.7 |
| 20260506090017 | 47 | 216 | 0.0 | 0.0 | 0.00 | 0.00 | 0.00 | 100 | 1016.6 |
| 20260506085016 | 47 | 216 | 0.0 | 0.0 | 0.00 | 0.00 | 0.00 | 100 | 1016.6 |
| 20260506084037 | 47 | 216 | 0.0 | 0.0 | 0.00 | 0.00 | 0.00 | 100 | 1016.5 |
| 20260506083057 | 46 | 216 | 0.0 | 0.0 | 0.00 | 0.00 | 0.00 | 100 | 1016.5 |
| 20260506082017 | 46 | 216 | 0.0 | 0.0 | 0.00 | 0.00 | 0.00 | 100 | 1016.5 |
| 20260506081016 | 46 | 216 | 0.0 | 0.0 | 0.00 | 0.00 | 0.00 | 100 | 1016.3 |
| 20260506073016 | 46 | 216 | 0.0 | 0.0 | 0.00 | 0.00 | 0.00 | 100 | 1015.9 |
| 20260506072017 | 47 | 216 | 0.0 | 0.0 | 0.00 | 0.00 | 0.00 | 100 | 1015.9 |
| 20260506071016 | 47 | 216 | 0.0 | 0.0 | 0.00 | 0.00 | 0.00 | 100 | 1015.8 |